FW4751 Weather Reports


time (UTC)temp
C
wind
direction
speed
KPH
gust
KPH
rain 1hr
cm
rain 24hr
cm
rain mn
cm
humidity
%
barometer
mb
20260505025003 15 315 1.6 6.4 0.00 0.00 0.00 69 1015.0
20260505024523 15 315 1.6 4.8 0.00 0.00 0.00 69 1015.0
20260505024003 15 315 1.6 4.8 0.00 0.00 0.00 68 1015.1
20260505023523 15 315 3.2 6.4 0.00 0.00 0.00 68 1015.0
20260505023003 15 315 1.6 6.4 0.00 0.00 0.00 68 1015.0
20260505022503 15 315 3.2 6.4 0.00 0.00 0.00 67 1014.9
20260505022003 15 338 3.2 8.0 0.00 0.00 0.00 67 1014.8
20260505021503 15 338 1.6 6.4 0.00 0.00 0.00 67 1014.9
20260505021008 15 338 1.6 8.0 0.00 0.00 0.00 67 1015.0
20260505020503 15 338 1.6 4.8 0.00 0.00 0.00 66 1015.0
20260505020003 15 338 1.6 6.4 0.00 0.00 0.00 66 1014.9
20260505015523 15 338 3.2 9.7 0.00 0.00 0.00 65 1014.9
20260505015003 16 315 3.2 9.7 0.00 0.00 0.00 65 1014.9
20260505014523 16 315 3.2 8.0 0.00 0.00 0.00 64 1015.0
20260505014023 16 315 3.2 8.0 0.00 0.00 0.00 63 1015.1
20260505013523 16 338 3.2 8.0 0.00 0.00 0.00 62 1015.0
20260505013003 16 315 3.2 11.3 0.00 0.00 0.00 62 1015.1
20260505012503 16 315 3.2 8.0 0.00 0.00 0.00 61 1015.1
20260505012003 16 338 1.6 6.4 0.00 0.00 0.00 61 1015.1
20260505011503 16 338 3.2 8.0 0.00 0.00 0.00 60 1015.1
20260505011003 16 338 3.2 6.4 0.00 0.00 0.00 59 1015.1
20260505010523 16 315 3.2 8.0 0.00 0.00 0.00 59 1015.2
20260505010004 16 315 4.8 11.3 0.00 0.00 0.00 58 1015.3
20260505005624 17 338 3.2 8.0 0.00 0.00 0.00 58 1015.4
20260505005003 16 338 3.2 8.0 0.00 0.00 0.00 58 1015.3
20260505004503 16 338 4.8 11.3 0.00 0.00 0.00 58 1015.2
20260505004003 16 338 3.2 9.7 0.00 0.00 0.00 60 1015.3
20260505003524 16 338 4.8 9.7 0.00 0.00 0.00 60 1015.4
20260505003003 16 338 3.2 8.0 0.00 0.00 0.00 60 1015.4
20260505002503 16 338 3.2 9.7 0.00 0.00 0.00 60 1015.4
20260505002023 16 338 3.2 9.7 0.00 0.00 0.00 61 1015.5
20260505001503 16 338 3.2 8.0 0.00 0.00 0.00 62 1015.4
20260505001023 16 315 3.2 9.7 0.00 0.00 0.00 63 1015.4
20260505000503 16 338 3.2 11.3 0.00 0.00 0.00 63 1015.4
20260505000003 16 315 3.2 11.3 0.00 0.00 0.00 63 1015.3
20260504235503 16 338 3.2 8.0 0.00 0.00 0.00 63 1015.3
20260504235003 17 338 3.2 8.0 0.00 0.00 0.00 62 1015.2
20260504234503 17 338 1.6 3.2 0.00 0.00 0.00 62 1015.2
20260504234003 17 315 1.6 4.8 0.00 0.00 0.00 62 1015.2
20260504233503 17 225 1.6 4.8 0.00 0.00 0.00 63 1015.2
20260504233003 17 225 3.2 6.4 0.00 0.00 0.00 64 1015.3
20260504232523 17 225 3.2 8.0 0.00 0.00 0.00 65 1015.3
20260504232003 17 225 3.2 9.7 0.00 0.00 0.00 63 1015.4
20260504231523 17 225 3.2 9.7 0.00 0.00 0.00 63 1015.2
20260504231003 17 225 3.2 11.3 0.00 0.00 0.00 63 1015.1
20260504230503 17 225 4.8 11.3 0.00 0.00 0.00 63 1015.2
20260504230003 17 225 4.8 12.9 0.00 0.00 0.00 61 1015.2
20260504225502 18 225 3.2 9.7 0.00 0.00 0.00 61 1015.2
20260504225003 18 225 6.4 14.5 0.00 0.00 0.00 61 1015.1
20260504224523 18 225 4.8 11.3 0.00 0.00 0.00 61 1015.2
20260504224003 18 225 4.8 9.7 0.00 0.00 0.00 61 1015.1
20260504223503 18 225 4.8 12.9 0.00 0.00 0.00 61 1015.3
20260504223005 18 225 3.2 9.7 0.00 0.00 0.00 62 1015.2
20260504222545 17 225 3.2 16.1 0.00 0.00 0.00 60 1015.3
20260504222004 18 225 3.2 11.3 0.00 0.00 0.00 58 1015.3
20260504221505 18 225 4.8 12.9 0.00 0.00 0.00 57 1015.3
20260504221004 19 225 4.8 17.7 0.00 0.00 0.00 57 1015.4
20260504220505 19 225 6.4 17.7 0.00 0.00 0.00 55 1015.4
20260504220005 20 225 6.4 14.5 0.00 0.00 0.00 54 1015.4
20260504215506 20 225 6.4 12.9 0.00 0.00 0.00 53 1015.5
20260504215004 21 225 4.8 11.3 0.00 0.00 0.00 52 1015.4
20260504214510 21 225 4.8 12.9 0.00 0.00 0.00 50 1015.3
20260504214005 21 203 4.8 12.9 0.00 0.00 0.00 50 1015.5
20260504213505 21 225 4.8 12.9 0.00 0.00 0.00 50 1015.4
20260504213005 21 225 4.8 14.5 0.00 0.00 0.00 50 1015.5
20260504212504 21 225 4.8 14.5 0.00 0.00 0.00 49 1015.4
20260504212005 21 225 4.8 11.3 0.00 0.00 0.00 49 1015.5
20260504211505 21 225 4.8 14.5 0.00 0.00 0.00 50 1015.4
20260504211005 21 315 3.2 11.3 0.00 0.00 0.00 52 1015.5
20260504210504 21 293 4.8 12.9 0.00 0.00 0.00 54 1015.6
20260504210005 20 225 4.8 11.3 0.00 0.00 0.00 54 1015.4
20260504205504 20 225 4.8 12.9 0.00 0.00 0.00 55 1015.6
20260504205004 20 225 4.8 11.3 0.00 0.00 0.00 55 1015.6
20260504204504 19 293 1.6 6.4 0.00 0.00 0.00 59 1015.6
20260504204005 18 315 3.2 9.7 0.00 0.00 0.00 59 1015.6
20260504203505 18 338 1.6 6.4 0.00 0.00 0.00 60 1015.6
20260504203004 18 315 1.6 6.4 0.00 0.00 0.00 61 1015.6
20260504202504 17 0 1.6 4.8 0.00 0.00 0.00 63 1015.6
20260504202004 17 293 1.6 4.8 0.00 0.00 0.00 64 1015.7
20260504201504 16 338 1.6 4.8 0.00 0.00 0.00 65 1015.7
20260504201024 16 338 1.6 4.8 0.00 0.00 0.00 65 1015.8
20260504200504 16 293 1.6 3.2 0.00 0.00 0.00 67 1015.8
20260504200004 16 338 1.6 6.4 0.00 0.00 0.00 67 1015.8
20260504195505 16 45 1.6 4.8 0.00 0.00 0.00 65 1015.9
20260504195004 16 338 3.2 6.4 0.00 0.00 0.00 66 1015.8
20260504194505 16 45 3.2 9.7 0.00 0.00 0.00 67 1016.0
20260504194025 16 45 3.2 6.4 0.00 0.00 0.00 69 1015.9
20260504193504 16 338 3.2 8.0 0.00 0.00 0.00 68 1015.9
20260504193005 16 45 3.2 8.0 0.00 0.00 0.00 68 1015.9
20260504192525 16 45 3.2 8.0 0.00 0.00 0.00 69 1015.9
20260504192005 16 45 3.2 6.4 0.00 0.00 0.00 70 1015.9
20260504191524 16 45 4.8 8.0 0.00 0.00 0.00 70 1016.0
20260504191004 16 338 3.2 8.0 0.00 0.00 0.00 71 1015.9
20260504190504 16 45 3.2 8.0 0.00 0.00 0.00 70 1015.9
20260504190005 16 45 3.2 6.4 0.00 0.00 0.00 69 1015.9
20260504185504 16 45 3.2 6.4 0.00 0.00 0.00 69 1016.0
20260504185005 16 338 1.6 6.4 0.00 0.00 0.00 68 1015.9
20260504184504 16 45 1.6 6.4 0.00 0.00 0.00 66 1015.9
20260504184004 16 45 3.2 6.4 0.00 0.00 0.00 66 1015.8
20260504183504 17 45 3.2 8.0 0.00 0.00 0.00 65 1015.9
20260504183004 17 68 3.2 6.4 0.00 0.00 0.00 65 1016.0
20260504182504 17 45 1.6 4.8 0.00 0.00 0.00 66 1015.8
20260504182004 16 45 1.6 4.8 0.00 0.00 0.00 67 1015.8
20260504181504 16 45 1.6 6.4 0.00 0.00 0.00 68 1015.8
20260504181004 16 45 1.6 6.4 0.00 0.00 0.00 67 1015.7
20260504180504 16 45 3.2 6.4 0.00 0.00 0.00 66 1015.9
20260504180004 17 45 3.2 6.4 0.00 0.00 0.00 62 1015.9
20260504175504 18 45 3.2 6.4 0.00 0.00 0.00 59 1015.7
20260504175024 18 45 1.6 6.4 0.00 0.00 0.00 57 1015.6
20260504174504 19 135 1.6 3.2 0.00 0.00 0.00 57 1015.6
20260504174024 19 135 1.6 4.8 0.00 0.00 0.00 56 1015.7
20260504173504 19 135 1.6 3.2 0.00 0.00 0.00 57 1015.7
20260504173004 19 135 1.6 3.2 0.00 0.00 0.00 58 1015.6
20260504172504 19 113 1.6 6.4 0.00 0.00 0.00 58 1015.5
20260504172004 19 135 1.6 3.2 0.00 0.00 0.00 59 1015.5
20260504171504 18 113 1.6 3.2 0.00 0.00 0.00 60 1015.5
20260504171004 18 113 3.2 6.4 0.00 0.00 0.00 62 1015.3
20260504170504 17 113 3.2 8.0 0.00 0.00 0.00 63 1015.3
20260504151004 13 113 1.6 3.2 0.00 0.00 0.00 77 1015.5
20260504150504 13 45 1.6 3.2 0.00 0.00 0.00 81 1015.4
20260504141003 8 225 1.6 3.2 0.00 0.00 0.00 90 1015.3
20260504140503 8 0.0 1.6 0.00 0.00 0.00 90 1015.3
20260504130503 8 0.0 1.6 0.00 0.00 0.00 89 1014.9
20260504110503 8 0.0 1.6 0.00 0.00 0.00 87 1015.1
20260504100503 9 0.0 1.6 0.00 0.00 0.00 84 1014.9
20260504082003 11 0.0 1.6 0.00 0.00 0.00 80 1015.3
20260504081525 11 0.0 3.2 0.00 0.00 0.00 80 1015.3
20260504081025 11 0 1.6 3.2 0.00 0.00 0.00 79 1015.4
20260504080545 11 0.0 3.2 0.00 0.00 0.00 78 1015.4
20260504050505 12 293 1.6 6.4 0.00 0.00 0.00 77 1015.1
20260504050004 12 315 1.6 3.2 0.00 0.00 0.00 77 1015.1
20260504045524 12 315 1.6 3.2 0.00 0.00 0.00 76 1014.8
20260504045004 12 315 1.6 3.2 0.00 0.00 0.00 76 1014.7
20260504044505 12 315 1.6 3.2 0.00 0.00 0.00 76 1014.7
20260504044004 12 225 1.6 6.4 0.00 0.00 0.00 76 1014.7
20260504043504 12 225 1.6 6.4 0.00 0.00 0.00 75 1014.7
20260504043004 12 270 1.6 3.2 0.00 0.00 0.00 75 1014.6
20260504042504 12 270 1.6 3.2 0.00 0.00 0.00 75 1014.5
20260504042004 12 225 3.2 8.0 0.00 0.00 0.00 74 1014.5
20260504041504 12 225 3.2 8.0 0.00 0.00 0.00 74 1014.5
20260504041005 12 225 3.2 9.7 0.00 0.00 0.00 74 1014.5
20260504040524 12 203 1.6 8.0 0.00 0.00 0.00 74 1014.3
20260504040024 13 225 3.2 6.4 0.00 0.00 0.00 74 1014.3
20260504035504 13 225 3.2 9.7 0.00 0.00 0.00 74 1014.2
20260504035004 13 225 3.2 9.7 0.00 0.00 0.00 74 1014.1
20260504034505 13 225 3.2 9.7 0.00 0.00 0.00 74 1014.1
20260504034025 13 225 3.2 11.3 0.00 0.00 0.00 73 1014.0
20260504033524 13 225 3.2 14.5 0.00 0.00 0.00 72 1014.0
20260504033004 13 225 4.8 11.3 0.00 0.00 0.00 72 1013.9
20260504032505 13 270 4.8 9.7 0.00 0.00 0.00 71 1013.8
20260504032004 13 248 3.2 12.9 0.00 0.00 0.00 70 1013.8
20260504031504 13 270 3.2 16.1 0.00 0.00 0.00 69 1013.7
20260504031004 13 248 3.2 8.0 0.00 0.00 0.00 68 1013.7
20260504030504 14 315 1.6 8.0 0.00 0.00 0.00 68 1013.7
20260504030004 14 270 4.8 14.5 0.00 0.00 0.00 68 1013.6
20260504025504 14 315 3.2 8.0 0.00 0.00 0.00 68 1013.5